Retour au catalogue

SHIYAN 3

SY-3

ActifScienceSSO
NORAD 33433·PAYLOAD·🇨🇳 China

Lancé Nov 5, 2008 depuis Jiuquan Satellite Launch Center

Loading…

Prochains Passages (prochaines 24 heures)

TLE

FraisSource: Space-Track

Époque: Sep 14, 2026, 11:59 UTC

1 33433U 08056A   26257.49983467  .00000079  00000-0  46850-4 0  9990
2 33433  98.6032 283.1556 0012764 228.3628 131.6462 14.30826138931571

Suivez SHIYAN 3 en temps réel avec AllMySat

Download on the App Store